Regional Weather Roundup
Issued by NWS Cleveland, OH

Home | Current Version | Previous Version | Text Only | Print | Product List | Glossary Off
Versions: 1 2 3 4 5 6 7 8 9 10 11 12 13 14 15 16 17 18 19 20 21 22 23 24 25 26 27 28 29 30 31 32 33 34 35 36 37 38 39 40 41 42 43 44 45 46 47 48 49 50

000
ASUS41 KCLE 181010
RWRCLE
OHIO REGIONAL WEATHER ROUNDUP
NATIONAL WEATHER SERVICE WILMINGTON, OH
600 AM EDT THU SEP 18 2014

NOTE: "FAIR" INDICATES FEW OR NO CLOUDS BELOW 12,000 FEET WITH NO
SIGNIFICANT WEATHER AND/OR OBSTRUCTIONS TO VISIBILITY.

OHZ001>008-015>018-024>027-034-035-043-044-181100-
   NORTHWEST OHIO

CITY           SKY/WX    TMP DP  RH WIND       PRES   REMARKS
DEFIANCE       CLEAR     45  41  86 CALM      30.06R
FINDLAY        CLEAR     49  45  86 NW3       30.04R
TOLEDO EXPRESS CLEAR     44  42  93 CALM      30.06R
TOLEDO METCALF CLEAR     49  44  83 CALM      30.06R
LIMA           CLEAR     46  44  93 CALM      30.05R FOG
$$

OHZ009>014-019>023-028>033-038-089-181100-
   NORTHEAST OHIO

CITY           SKY/WX    TMP DP  RH WIND       PRES   REMARKS
CLE-HOPKINS    MOCLDY    50  48  93 CALM      30.07R
CLE-LAKEFRONT  MOCLDY    53  48  83 S6        30.03R
CUY CO. ARPT   NOT AVBL
LORAIN-ELYRIA  MOCLDY    54  48  80 CALM      30.05R
ASHTABULA      CLEAR     44  42  93 CALM      30.04R FOG
AKRON-CANTON   PTCLDY    48  45  89 CALM      30.04R FOG
WOOSTER        MOCLDY    47  44  90 CALM      30.05R FOG
MANSFIELD      MOCLDY    50  48  93 CALM      30.05R
YOUNGSTOWN     FOG       45  44  97 CALM      30.04R VSB 1
$$

OHZ042-051>053-060>062-070>072-077>081-181100-
  SOUTHWEST OHIO

CITY           SKY/WX    TMP DP  RH WIND       PRES   REMARKS
CINC-COVINGTON PTCLDY    55  48  77 N5        30.03R
CINC-LUNKEN    MOCLDY    47  47 100 CALM      30.05R FOG
HAMILTON       CLEAR     46  45  96 CALM      30.05R FOG
DAYTON         PTCLDY    48  46  93 NE5       30.05S
WRIGHT-PAT AFB CLEAR     46  45  95 CALM      30.05R FOG
DAYTON GENERAL CLEAR     48  46  93 NE5       30.04R
WILMINGTON     CLEAR     46  44  93 NE6       30.04R FOG
$$

OHZ036-037-039>041-045>050-054>059-063>069-073>076-082>088-181100-
  CENTRAL AND SOUTHEAST OHIO

CITY           SKY/WX    TMP DP  RH WIND       PRES   REMARKS
COLUMBUS       MOCLDY    53  47  79 CALM      30.04R
OSU AIRPORT    CLEAR     48  46  93 CALM      30.05R
BOLTON FIELD   PTCLDY    46  45  97 NW3       30.05R
RICKENBACK AFB PTCLDY    49  46  92 CALM      30.04R
NEWARK         MOCLDY    48  46  93 CALM      30.04R FOG
MARION         CLEAR     47  45  93 CALM      30.05R FOG
LANCASTER      PTCLDY    47  45  93 CALM      30.04R FOG
ZANESVILLE     CLOUDY    51  47  86 E3        30.03R
NEW PHILLY     MOCLDY    50  48  93 CALM      30.05R
$$



USA.gov is the U.S. government's official web portal to all federal, state and local government web resources and services.